EN

Hourly Weather Lahodiv

Today, 26 July, Monday

Time Temperature Precipitation Wind Pressure Humidity
00:00 +20°C° 0 mm 3 mps 737 mmHg 75%
01:00 +19°C° 0 mm 3 mps 736 mmHg 74%
02:00 +19°C° 0 mm 4 mps 736 mmHg 72%
03:00 +19°C° 0 mm 4 mps 736 mmHg 72%
04:00 +19°C° 0 mm 4 mps 736 mmHg 72%
05:00 +19°C° 0 mm 4 mps 736 mmHg 72%
06:00 +19°C° 0 mm 4 mps 736 mmHg 72%
07:00 +20°C° 0 mm 4 mps 736 mmHg 73%
08:00 +20°C° 0 mm 4 mps 736 mmHg 74%
09:00 +22°C° 0 mm 4 mps 737 mmHg 71%
10:00 +23°C° 0 mm 4 mps 737 mmHg 67%
11:00 +26°C° 0 mm 4 mps 737 mmHg 64%
12:00 +27°C° 0 mm 4 mps 737 mmHg 61%
13:00 +28°C° 0 mm 5 mps 737 mmHg 58%
14:00 +29°C° 0 mm 5 mps 736 mmHg 55%
15:00 +29°C° 0 mm 5 mps 736 mmHg 58%
16:00 +28°C° 0 mm 5 mps 736 mmHg 61%
17:00 +28°C° 0 mm 5 mps 736 mmHg 65%
18:00 +26°C° 0.5 mm 5 mps 736 mmHg 71%
19:00 +23°C° 0.5 mm 5 mps 736 mmHg 78%
20:00 +21°C° 0.5 mm 6 mps 736 mmHg 84%
21:00 +20°C° 0.4 mm 5 mps 736 mmHg 85%
22:00 +20°C° 0.4 mm 5 mps 736 mmHg 85%
23:00 +19°C° 0.4 mm 5 mps 736 mmHg 85%

Tomorrow, 27 July, Tuesday

Time Temperature Precipitation Wind Pressure Humidity
00:00 +19°C° 0.1 mm 4 mps 735 mmHg 86%
01:00 +18°C° 0.1 mm 4 mps 735 mmHg 86%
02:00 +18°C° 0.1 mm 3 mps 735 mmHg 86%
03:00 +18°C° 0.5 mm 3 mps 735 mmHg 87%
04:00 +18°C° 0.5 mm 3 mps 735 mmHg 88%
05:00 +19°C° 0.5 mm 3 mps 735 mmHg 90%
06:00 +21°C° 0 mm 3 mps 735 mmHg 85%
07:00 +22°C° 0 mm 4 mps 735 mmHg 81%
08:00 +25°C° 0 mm 4 mps 735 mmHg 77%
09:00 +26°C° 0 mm 4 mps 735 mmHg 73%
10:00 +27°C° 0 mm 4 mps 735 mmHg 70%
11:00 +28°C° 0 mm 4 mps 736 mmHg 67%
12:00 +29°C° 0 mm 4 mps 735 mmHg 61%
13:00 +30°C° 0 mm 4 mps 735 mmHg 56%
14:00 +33°C° 0 mm 4 mps 735 mmHg 50%
15:00 +31°C° 0.1 mm 3 mps 735 mmHg 56%
16:00 +30°C° 0.1 mm 3 mps 735 mmHg 62%
17:00 +29°C° 0.1 mm 2 mps 735 mmHg 68%
18:00 +28°C° 0.1 mm 2 mps 735 mmHg 71%
19:00 +26°C° 0.1 mm 2 mps 735 mmHg 75%
20:00 +25°C° 0.1 mm 1 mps 735 mmHg 79%
21:00 +24°C° 0.3 mm 2 mps 735 mmHg 83%
22:00 +23°C° 0.3 mm 2 mps 735 mmHg 87%
23:00 +20°C° 0.3 mm 2 mps 736 mmHg 91%

Day after tomorrow, 28 July, Wednesday

Time Temperature Precipitation Wind Pressure Humidity
00:00 +20°C° 0.4 mm 2 mps 736 mmHg 92%
01:00 +19°C° 0.4 mm 2 mps 736 mmHg 93%
02:00 +19°C° 0.4 mm 2 mps 736 mmHg 94%
03:00 +19°C° 0 mm 2 mps 736 mmHg 94%
04:00 +19°C° 0 mm 2 mps 736 mmHg 94%
05:00 +18°C° 0 mm 2 mps 736 mmHg 94%
06:00 +21°C° 0 mm 1 mps 736 mmHg 90%
07:00 +22°C° 0 mm 1 mps 736 mmHg 86%
08:00 +23°C° 0 mm 1 mps 737 mmHg 82%
09:00 +25°C° 0 mm 1 mps 737 mmHg 76%
10:00 +26°C° 0 mm 1 mps 737 mmHg 69%
11:00 +28°C° 0 mm 1 mps 737 mmHg 63%
12:00 +28°C° 0 mm 1 mps 736 mmHg 60%
13:00 +29°C° 0 mm 1 mps 736 mmHg 57%
14:00 +28°C° 0 mm 0 mps 736 mmHg 54%
15:00 +29°C° 0.3 mm 1 mps 736 mmHg 57%
16:00 +29°C° 0.3 mm 1 mps 735 mmHg 60%
17:00 +29°C° 0.3 mm 2 mps 735 mmHg 63%
18:00 +27°C° 0.5 mm 2 mps 735 mmHg 71%
19:00 +25°C° 0.5 mm 2 mps 735 mmHg 78%
20:00 +23°C° 0.5 mm 2 mps 734 mmHg 85%
21:00 +23°C° 0.9 mm 2 mps 734 mmHg 87%
22:00 +21°C° 0.9 mm 2 mps 734 mmHg 89%
23:00 +20°C° 0.9 mm 2 mps 734 mmHg 90%

29 July, Thursday

Time Temperature Precipitation Wind Pressure Humidity
00:00 +20°C° 0.2 mm 2 mps 734 mmHg 90%
01:00 +20°C° 0.2 mm 2 mps 734 mmHg 90%
02:00 +20°C° 0.2 mm 2 mps 733 mmHg 90%
03:00 +21°C° 0.1 mm 1 mps 733 mmHg 90%
04:00 +21°C° 0.1 mm 1 mps 733 mmHg 90%
05:00 +21°C° 0.1 mm 1 mps 733 mmHg 90%
06:00 +20°C° 0.1 mm 3 mps 734 mmHg 90%
07:00 +21°C° 0.1 mm 4 mps 734 mmHg 90%
08:00 +22°C° 0.1 mm 6 mps 735 mmHg 90%
09:00 +22°C° 0 mm 5 mps 735 mmHg 87%
10:00 +23°C° 0 mm 5 mps 735 mmHg 84%
11:00 +23°C° 0 mm 5 mps 735 mmHg 81%
12:00 +23°C° 0 mm 5 mps 735 mmHg 79%
13:00 +23°C° 0 mm 5 mps 735 mmHg 78%
14:00 +25°C° 0 mm 5 mps 735 mmHg 76%
15:00 +25°C° 0 mm 4 mps 735 mmHg 75%
16:00 +25°C° 0 mm 4 mps 735 mmHg 73%
17:00 +25°C° 0 mm 4 mps 735 mmHg 72%
18:00 +24°C° 0 mm 3 mps 735 mmHg 77%
19:00 +23°C° 0 mm 2 mps 735 mmHg 82%
20:00 +22°C° 0 mm 1 mps 735 mmHg 87%
21:00 +21°C° 0 mm 1 mps 735 mmHg 87%
22:00 +21°C° 0 mm 1 mps 735 mmHg 88%
23:00 +20°C° 0 mm 1 mps 735 mmHg 89%

30 July, Friday

Time Temperature Precipitation Wind Pressure Humidity
00:00 +20°C° 0 mm 1 mps 735 mmHg 89%
01:00 +19°C° 0 mm 1 mps 735 mmHg 90%
02:00 +19°C° 0 mm 1 mps 734 mmHg 91%
03:00 +19°C° 0 mm 1 mps 734 mmHg 91%
04:00 +19°C° 0 mm 1 mps 734 mmHg 91%
05:00 +19°C° 0 mm 1 mps 734 mmHg 91%
06:00 +19°C° 0 mm 2 mps 734 mmHg 87%
07:00 +21°C° 0 mm 2 mps 734 mmHg 82%
08:00 +23°C° 0 mm 2 mps 734 mmHg 77%
09:00 +25°C° 0 mm 3 mps 734 mmHg 72%
10:00 +26°C° 0 mm 3 mps 734 mmHg 67%
11:00 +28°C° 0 mm 4 mps 733 mmHg 62%
12:00 +29°C° 0 mm 4 mps 733 mmHg 60%
13:00 +30°C° 0 mm 4 mps 733 mmHg 58%
14:00 +32°C° 0 mm 4 mps 732 mmHg 55%
15:00 +30°C° 0 mm 3 mps 732 mmHg 58%
16:00 +30°C° 0 mm 3 mps 732 mmHg 60%
17:00 +30°C° 0 mm 3 mps 731 mmHg 62%
18:00 +29°C° 0 mm 3 mps 731 mmHg 64%
19:00 +28°C° 0 mm 4 mps 730 mmHg 67%
20:00 +26°C° 0 mm 4 mps 730 mmHg 69%
21:00 +23°C° 1.6 mm 4 mps 730 mmHg 78%
22:00 +21°C° 1.6 mm 4 mps 731 mmHg 87%
23:00 +19°C° 1.6 mm 3 mps 731 mmHg 97%

31 July, Saturday

Time Temperature Precipitation Wind Pressure Humidity
00:00 +19°C° 0.5 mm 3 mps 731 mmHg 96%
01:00 +19°C° 0.5 mm 2 mps 731 mmHg 96%
02:00 +20°C° 0.5 mm 1 mps 731 mmHg 95%
03:00 +20°C° 0 mm 1 mps 731 mmHg 96%
04:00 +19°C° 0 mm 1 mps 731 mmHg 96%
05:00 +19°C° 0 mm 1 mps 732 mmHg 96%
06:00 +19°C° 0 mm 2 mps 732 mmHg 92%
07:00 +20°C° 0 mm 2 mps 732 mmHg 88%
08:00 +21°C° 0 mm 3 mps 732 mmHg 84%
09:00 +24°C° 0 mm 3 mps 732 mmHg 79%
10:00 +25°C° 0 mm 4 mps 733 mmHg 73%
11:00 +26°C° 0 mm 4 mps 733 mmHg 67%
12:00 +25°C° 0.2 mm 4 mps 733 mmHg 73%
13:00 +24°C° 0.2 mm 3 mps 733 mmHg 79%
14:00 +21°C° 0.2 mm 3 mps 733 mmHg 84%
15:00 +22°C° 0 mm 3 mps 733 mmHg 79%
16:00 +24°C° 0 mm 3 mps 733 mmHg 74%
17:00 +25°C° 0 mm 3 mps 733 mmHg 68%
18:00 +24°C° 0.1 mm 2 mps 733 mmHg 73%
19:00 +21°C° 0.1 mm 2 mps 733 mmHg 78%
20:00 +21°C° 0.1 mm 1 mps 733 mmHg 84%
21:00 +20°C° 0 mm 1 mps 734 mmHg 83%
22:00 +20°C° 0 mm 1 mps 734 mmHg 82%
23:00 +17°C° 0 mm 0 mps 734 mmHg 81%
Show more